TimeCDT,TemperatureF,Dew PointF,Humidity,Sea Level PressureIn,VisibilityMPH,Wind Direction,Wind SpeedMPH,Gust SpeedMPH,PrecipitationIn,Events,Conditions,WindDirDegrees,DateUTC
12:53 AM,24.1,21.0,88,30.01,10.0,West,4.6,-,N/A,,Clear,260,2013-03-12 05:53:00
1:53 AM,24.1,21.0,88,30.03,10.0,SW,5.8,-,N/A,,Clear,230,2013-03-12 06:53:00
2:53 AM,24.1,21.0,88,30.03,10.0,WSW,5.8,-,N/A,,Clear,250,2013-03-12 07:53:00
3:53 AM,21.9,19.9,92,30.04,10.0,SW,4.6,-,N/A,,Clear,230,2013-03-12 08:53:00
4:53 AM,25.0,21.0,85,30.05,10.0,WSW,6.9,-,N/A,,Clear,240,2013-03-12 09:53:00
5:53 AM,25.0,21.9,88,30.07,10.0,WSW,6.9,-,N/A,,Clear,240,2013-03-12 10:53:00
6:53 AM,25.0,21.9,88,30.09,10.0,WSW,5.8,-,N/A,,Clear,250,2013-03-12 11:53:00
7:53 AM,27.0,23.0,85,30.11,10.0,West,8.1,-,N/A,,Clear,260,2013-03-12 12:53:00
8:53 AM,30.0,23.0,75,30.12,10.0,West,9.2,-,N/A,,Clear,270,2013-03-12 13:53:00
9:53 AM,32.0,23.0,69,30.15,10.0,West,9.2,-,N/A,,Clear,280,2013-03-12 14:53:00
10:53 AM,36.0,26.1,67,30.15,10.0,West,9.2,-,N/A,,Clear,280,2013-03-12 15:53:00
11:53 AM,41.0,25.0,53,30.16,10.0,WNW,10.4,-,N/A,,Overcast,290,2013-03-12 16:53:00
12:53 PM,45.0,25.0,46,30.15,10.0,WNW,13.8,20.7,N/A,,Mostly Cloudy,290,2013-03-12 17:53:00
1:53 PM,45.0,25.0,46,30.13,10.0,West,16.1,31.1,N/A,,Mostly Cloudy,280,2013-03-12 18:53:00
2:53 PM,46.9,26.1,44,30.12,10.0,West,10.4,23.0,N/A,,Overcast,280,2013-03-12 19:53:00
3:53 PM,46.0,27.0,47,30.12,10.0,West,20.7,27.6,N/A,,Overcast,280,2013-03-12 20:53:00
4:53 PM,44.1,28.0,53,30.13,10.0,WNW,18.4,29.9,0.00,Rain,Light Rain,300,2013-03-12 21:53:00
5:53 PM,42.1,25.0,51,30.14,10.0,NW,15.0,28.8,N/A,,Overcast,310,2013-03-12 22:53:00
6:53 PM,41.0,24.1,51,30.17,10.0,WNW,13.8,25.3,N/A,,Overcast,300,2013-03-12 23:53:00
7:53 PM,37.9,21.9,53,30.19,10.0,WNW,13.8,23.0,N/A,,Clear,290,2013-03-13 00:53:00
8:53 PM,36.0,21.9,57,30.21,10.0,NW,10.4,-,N/A,,Clear,310,2013-03-13 01:53:00
9:53 PM,35.1,23.0,61,30.24,10.0,WNW,16.1,21.9,N/A,,Clear,300,2013-03-13 02:53:00
10:53 PM,33.8,21.2,60,30.22,10.0,NW,17.3,-,N/A,,Clear,310,2013-03-13 03:53:00
11:53 PM,32.0,21.0,64,30.26,10.0,WNW,11.5,-,N/A,,Clear,300,2013-03-13 04:53:00